User: anonymous   Login
Location: Unspecified
(0.0000°N, 0.0000°E)
Time: 18:59:32
(UTC+00:00)
Language:

STARLINK-30834 - Orbit

View from above orbital plane
View from above orbital plane
View from above satellite
View from above satellite

Ground track
Ground track

The orbit is defined by the following mean orbital elements,

1 58151U          26145.49612750 +.00000000 +00000-0 +67993-3 0 00002
2 58151  53.1577 222.9946 0000948  71.6706 288.4398 15.30197839    00
Epoch (UTC): 25 May 2026 11:54:25
Eccentricity: 0.0000948
inclination: 53.1577°
perigee height: 475 km
apogee height: 476 km
right ascension of ascending node: 222.9946°
argument of perigee: 71.6706°
revolutions per day: 15.30197839
mean anomaly at epoch: 288.4398°

The dashed part of the orbit path shows where the satellite is in the earth's shadow,  

DLR